Montreal, Quebec

3:12 AM EST on February 20, 2018 (GMT -0500)
Montreal-Pierre Elliott Trudeau Int'l Airport

Weather History for CYUL - February, 2013

Change the Weather History Date:

Monday, February 25, 2013

  Actual Average Record
Temperature  
Mean Temperature 32 °F -  
Max Temperature 34 °F 34 °F 58 °F (2017)
Min Temperature 29 °F 18 °F -4 °F (1997)
Degree Days  
Heating Degree Days 34    
Moisture  
Dew Point 30 °F    
Average Humidity 91    
Maximum Humidity 100    
Minimum Humidity 80    
Precipitation  
Precipitation 0.01 in 0.09 in - ()
Sea Level Pressure  
Sea Level Pressure 30.13 in    
Wind  
Wind Speed 3 mph ()    
Max Wind Speed 7 mph    
Max Gust Speed -    
Visibility 7.3 miles    
Events Snow    
Averages and records for this station are not official NWS values.
T = Trace of Precipitation, MM = Missing Value Source: Averaged Metar Reports

Daily Weather History Graph

Daily Weather History Graph

Search for Another Location

Airport or City:

Trip Planner

Search our weather history database for the weather conditions in past years. The results will help you decide how hot, cold, wet, or windy it might be!

Date:

Astronomy

Feb. 25, 2013 Rise Set
Actual Time 6:39 AM EST 5:36 PM EST
Civil Twilight 6:10 AM EST 6:06 PM EST
Nautical Twilight 5:35 AM EST 6:40 PM EST
Astronomical Twilight 5:01 AM EST 7:15 PM EST
Moon 5:50 PM EST (2/25) 6:07 AM EST (2/25)
Length of Visible Light 11h 56m
Length of Day
10h 56m
Full, 100% of the Moon is Illuminated
Feb 25
Full
Feb 25
Full
Mar 4
Last Quarter
Mar 11
New
Mar 19
First Quarter

Hourly Weather History & Observations

Time (EST) Temp. Windchill Dew Point Humidity Pressure Visibility Wind Dir Wind Speed Gust Speed Precip Events Conditions
12:00 AM 32.0 °F 25.6 °F 28.4 °F 87% 29.97 in 10.0 mi West 6.9 mph - N/A Snow Light Snow
12:18 AM 32.0 °F 28.7 °F 30.2 °F 93% 29.98 in 10.0 mi North 3.5 mph - N/A Snow Light Snow
12:48 AM 32.0 °F 28.7 °F 30.2 °F 93% 29.99 in 10.0 mi NW 3.5 mph - N/A Snow Light Snow
1:00 AM 32 °F - 30 °F 87% 30.00 in 10 mi NW 2.3 mph - - Snow Light Snow
1:00 AM 32.0 °F - 30.2 °F 93% 29.99 in 10.0 mi NW 2.3 mph - N/A Snow Light Snow
1:38 AM 32.0 °F 27.5 °F 30.2 °F 93% 30.00 in 10.0 mi West 4.6 mph - N/A Snow Light Snow
2:00 AM 32.0 °F 27.5 °F 30.2 °F 93% 30.01 in 10.0 mi NNW 4.6 mph - N/A Snow Light Snow
3:00 AM 32.0 °F 27.5 °F 28.4 °F 87% 30.02 in 12.0 mi North 4.6 mph - N/A Snow Light Snow
3:53 AM 30.2 °F 25.4 °F 28.4 °F 93% 30.04 in 12.0 mi North 4.6 mph - N/A Snow Light Snow
4:00 AM 30.2 °F 25.4 °F 28.4 °F 93% 30.04 in 12.0 mi North 4.6 mph - N/A Snow Snow
5:00 AM 30.2 °F 24.3 °F 28.4 °F 93% 30.06 in 12.0 mi NNW 5.8 mph - N/A Snow Light Snow
6:00 AM 30.2 °F 25.4 °F 28.4 °F 93% 30.07 in 15.0 mi North 4.6 mph - N/A Snow Light Snow
7:00 AM 30 °F - 28 °F 90% 30.10 in 7 mi NNW 3.5 mph - - Snow Light Snow
7:00 AM 30.2 °F 25.4 °F 28.4 °F 93% 30.10 in 8.0 mi NNW 4.6 mph - N/A Snow Light Snow
8:00 AM 30.2 °F 25.4 °F 28.4 °F 93% 30.11 in 8.0 mi North 4.6 mph - N/A Snow Light Snow
9:00 AM 30.2 °F 26.7 °F 28.4 °F 93% 30.12 in 8.0 mi NNE 3.5 mph - N/A Snow Light Snow
10:00 AM 32.0 °F 28.7 °F 28.4 °F 87% 30.14 in 5.0 mi North 3.5 mph - N/A Snow Light Snow
10:47 AM 32.0 °F - 28.4 °F 87% 30.15 in 4.0 mi NNW 2.3 mph - N/A Snow Light Snow
11:00 AM 32.0 °F - 28.4 °F 87% 30.15 in 4.0 mi Calm Calm - N/A Snow Light Snow
12:00 PM 33.8 °F - 28.4 °F 81% 30.16 in 4.0 mi Calm Calm - N/A Snow Light Snow
1:00 PM 34 °F - 30 °F 80% 30.16 in 4 mi West 3.5 mph - - Snow Light Snow
1:00 PM 33.8 °F 30.8 °F 30.2 °F 87% 30.16 in 4.0 mi WNW 3.5 mph - N/A Snow Light Snow
1:29 PM 33.8 °F - 30.2 °F 87% 30.16 in 5.0 mi Calm Calm - N/A Snow Light Snow
2:00 PM 33.8 °F - 30.2 °F 87% 30.16 in 5.0 mi Calm Calm - N/A Snow Light Snow
2:27 PM 35.6 °F - 30.2 °F 81% 30.17 in 6.0 mi Variable 2.3 mph - N/A Snow Light Snow
3:00 PM 33.8 °F 27.7 °F 32.0 °F 93% 30.18 in 5.0 mi SW 6.9 mph - N/A Snow Light Snow
4:00 PM 33.8 °F 29.6 °F 32.0 °F 93% 30.19 in 6.0 mi SW 4.6 mph - N/A Snow Light Snow
5:00 PM 33.8 °F - 32.0 °F 93% 30.20 in 8.0 mi WSW 2.3 mph - N/A   Overcast
6:00 PM 33.8 °F - 32.0 °F 93% 30.21 in 7.0 mi Calm Calm - N/A   Overcast
7:00 PM 33 °F - 31 °F 89% 30.23 in 7 mi SW 4.6 mph - -   Partly Cloudy
7:00 PM 32.0 °F 28.7 °F 30.2 °F 93% 30.23 in 8.0 mi SW 3.5 mph - N/A   Overcast
7:42 PM 32.0 °F 28.7 °F 30.2 °F 93% 30.24 in 6.0 mi SW 3.5 mph - N/A Snow Light Snow
8:00 PM 32.0 °F 28.7 °F 32.0 °F 100% 30.24 in 6.0 mi SW 3.5 mph - N/A Snow Light Snow
9:00 PM 32.0 °F 28.7 °F 30.2 °F 93% 30.24 in 6.0 mi SW 3.5 mph - N/A Snow Light Snow
10:00 PM 32.0 °F - 32.0 °F 100% 30.24 in 4.0 mi South 2.3 mph - N/A Snow Light Snow
10:40 PM 30.2 °F 26.7 °F 30.2 °F 100% 30.25 in 3.0 mi SW 3.5 mph - N/A Snow Light Snow
11:00 PM 32.0 °F 28.7 °F 32.0 °F 100% 30.25 in 2.5 mi SSW 3.5 mph - N/A Snow Light Snow
11:39 PM 32.0 °F - 30.2 °F 93% 30.25 in 3.0 mi Calm Calm - N/A   Overcast